Weather History for KNUW - August, 2013

Change the Weather History Date:

Wednesday, August 21, 2013

  Actual Average Record
Temperature  
Mean Temperature 58 °F -  
Max Temperature 70 °F 65 °F 75 °F (2005)
Min Temperature 48 °F 50 °F 46 °F (1996)
Degree Days  
Heating Degree Days 7    
Growing Degree Days 8 (Base 50)    
Moisture  
Dew Point 50 °F    
Average Humidity 78    
Maximum Humidity 97    
Minimum Humidity 59    
Precipitation  
Precipitation 0.00 in - - ()
Sea Level Pressure  
Sea Level Pressure 30.07 in    
Wind  
Wind Speed 3 mph (West)    
Max Wind Speed 9 mph    
Max Gust Speed -    
Visibility 10 miles    
Events Fog    
Averages and records for this station are not official NWS values.
T = Trace of Precipitation, MM = Missing Value Source: NWS Daily Summary

Daily Weather History Graph

Daily Weather History Graph

Search for Another Location

Airport or City:

Trip Planner

Search our weather history database for the weather conditions in past years. The results will help you decide how hot, cold, wet, or windy it might be!

Date:

Astronomy

Aug. 21, 2013 Rise Set
Actual Time 6:13 AM PDT 8:12 PM PDT
Civil Twilight 5:39 AM PDT 8:46 PM PDT
Nautical Twilight 4:58 AM PDT 9:27 PM PDT
Astronomical Twilight 4:11 AM PDT 10:13 PM PDT
Moon 8:13 PM PDT (8/21) 7:08 AM PDT (8/21)
Length of Visible Light 15h 06m
Length of Day
13h 59m
Full, 99% of the Moon is Illuminated
Aug 21
Full
Aug 28
Last Quarter
Sep 5
New
Sep 12
First Quarter
Sep 19
Full

Hourly Weather History & Observations

Time (PDT) Temp. Dew Point Humidity Pressure Visibility Wind Dir Wind Speed Gust Speed Precip Events Conditions
12:56 AM 50.0 °F 46.9 °F 89% 30.13 in 10.0 mi Calm Calm - N/A   Partly Cloudy
1:56 AM 48.0 °F 46.9 °F 96% 30.13 in 10.0 mi Calm Calm - N/A   Clear
2:56 AM 48.9 °F 48.0 °F 97% 30.12 in 10.0 mi ENE 4.6 mph - N/A   Partly Cloudy
3:56 AM 48.0 °F 46.0 °F 93% 30.12 in 10.0 mi Calm Calm - N/A   Partly Cloudy
4:56 AM 48.9 °F 46.9 °F 93% 30.11 in 10.0 mi Calm Calm - N/A   Partly Cloudy
5:56 AM 48.9 °F 48.0 °F 97% 30.11 in 9.0 mi Calm Calm - N/A Fog Shallow Fog
6:56 AM 50.0 °F 48.9 °F 96% 30.12 in 10.0 mi NNW 3.5 mph - N/A   Mostly Cloudy
7:56 AM 53.1 °F 51.1 °F 93% 30.12 in 10.0 mi Calm Calm - N/A   Scattered Clouds
8:56 AM 55.9 °F 50.0 °F 80% 30.13 in 10.0 mi West 5.8 mph - N/A   Scattered Clouds
9:56 AM 57.9 °F 50.0 °F 75% 30.12 in 10.0 mi West 4.6 mph - N/A   Scattered Clouds
10:56 AM 60.1 °F 50.0 °F 69% 30.12 in 10.0 mi West 6.9 mph - N/A   Partly Cloudy
11:56 AM 62.1 °F 51.1 °F 67% 30.11 in 10.0 mi West 6.9 mph - N/A   Partly Cloudy
12:56 PM 64.0 °F 51.1 °F 63% 30.09 in 10.0 mi West 6.9 mph - N/A   Partly Cloudy
1:56 PM 66.9 °F 53.1 °F 61% 30.07 in 10.0 mi West 8.1 mph - N/A   Partly Cloudy
2:56 PM 68.0 °F 53.1 °F 59% 30.05 in 10.0 mi WSW 6.9 mph - N/A   Scattered Clouds
3:56 PM 66.9 °F 52.0 °F 59% 30.04 in 10.0 mi West 9.2 mph - N/A   Scattered Clouds
4:56 PM 66.0 °F 53.1 °F 63% 30.01 in 10.0 mi West 5.8 mph - N/A   Scattered Clouds
5:56 PM 66.0 °F 52.0 °F 60% 30.00 in 10.0 mi West 4.6 mph - N/A   Scattered Clouds
6:56 PM 64.0 °F 51.1 °F 63% 29.98 in 10.0 mi West 5.8 mph - N/A   Scattered Clouds
7:56 PM 57.9 °F 51.1 °F 78% 29.98 in 10.0 mi Calm Calm - N/A   Scattered Clouds
8:56 PM 55.9 °F 50.0 °F 80% 29.99 in 10.0 mi West 4.6 mph - N/A   Scattered Clouds
9:56 PM 54.0 °F 48.9 °F 83% 30.00 in 10.0 mi WSW 4.6 mph - N/A   Scattered Clouds
10:56 PM 53.1 °F 48.0 °F 83% 29.99 in 10.0 mi Calm Calm - N/A   Mostly Cloudy
11:56 PM 54.0 °F 48.0 °F 80% 29.99 in 10.0 mi East 3.5 mph - N/A   Scattered Clouds